CZ-4B R/B (28059 NORAD) Tracking and Keplerian Element Data

This shows tracking and keplerian element data for the satellite.

Feedback or suggestion? Click here.




ElementValue
Catalog28059
NameCZ-4B R/B
Epoch Orbit78111
Epoch Day198.78125201
Epoch Year2018
RAAN96.574
Inclination98.5172
Eccentricity0.0051164
Argument of Perigee119.207
Mean Anonmoly282.41
Mean Motion14.52531661
Decay Rate-9E-08
L11 28059U 03049C 18198.78125201 -.00000009 00000-0 95061-5 0 9999
L22 28059 98.5172 96.5740 0051164 119.2070 282.4100 14.52531661781115

Live tracking and technical data element details for CZ-4B R/B (NORAD 28059). CZ-4B R/B can be tracked NOW for your location showing map with azimuth and elevation plus other details from your city location.

Track the satellite on the map from your city or location and see movement details for azimuth, elevation, latitude, longitude, range, height, and movement on the map or in text.







IsCatalogInMostPopularTable: catalog: 28059, numindb: 29
Update: records affected: 1



GetName: 28059 CZ-4B R/B

Hit Count: updated at: Fri, 20 Jul 2018 02:36:46 GMT